Flag for U.S.A. Weather past 2 weeks in St. Paul, Minnesota, U.S.A.

Now
65 °F

Clear.


Feels Like: 65 °F
Forecast: 65 / 85 °F
Wind: 6 mph from Southeast

Location: St. Paul Downtown Holman Field

Current Time: Aug 29, 2015 at 11:25:07 PM

Latest Report: Aug 29, 2015 at 10:53 PM


Visibility: 9 mi

Pressure: 30.01 "Hg

Humidity: 94%

Dew point: 63 °F

Location of St. PaulLocation

Historic Weather in St. Paul — Graph

°F

St. Paul temperature yesterday

Maximum temperature yesterday: 75 °F (at 2:53 PM)
Minimum temperature yesterday: 60 °F (at 11:53 PM)
Average temperature yesterday: 66 °F

Past Weeks' High & Low Weather Summary

 TemperatureHumidityPressure
High90 °F (Aug 15, 1:53 PM)100% (Aug 19, 12:53 AM)30.20 "Hg (Aug 19, 12:53 AM)
Low51 °F (Aug 26, 6:53 AM)38% (Aug 20, 3:53 PM)29.46 "Hg (Aug 19, 4:53 AM)
Average66 °F74%29.92 "Hg
* Reported Aug 14 9:53 PM — Aug 29 9:53 PM, St. Paul, Weather by CustomWeather, © 2015

Note: Actual official high and low records may vary slightly from our data, if they occured in-between our weather recording intervals... More about our weather records

Advertising

St. Paul weather history for previous 24 hours

 ConditionsComfort  
Time TempWeatherWind HumidityBarometerVisibility
9:53 PM
Sat, Aug 29
65 °FClear.No wind94%30.01 "Hg10 mi
8:53 PM67 °FSunny.5 mph90%30.01 "Hg10 mi
7:53 PM69 °FSunny.5 mph84%30.00 "Hg10 mi
6:53 PM71 °FSunny.5 mph78%30.01 "Hg10 mi
5:53 PM73 °FSunny.3 mph71%30.01 "Hg10 mi
4:53 PM73 °FSunny.5 mph71%30.02 "Hg10 mi
3:53 PM71 °FSunny.5 mph73%30.03 "Hg10 mi
2:53 PM70 °FSunny.7 mph73%30.04 "Hg10 mi
1:53 PM69 °FScattered clouds.6 mph76%30.05 "Hg10 mi
12:53 PM67 °FSunny.5 mph79%30.06 "Hg10 mi
11:53 AM64 °FLow clouds.3 mph84%30.07 "Hg7 mi
10:53 AM60 °FLow clouds.3 mph93%30.07 "Hg7 mi
9:53 AM59 °FFog.No wind93%30.07 "Hg5 mi
8:53 AM57 °FFog.6 mph96%30.06 "Hg5 mi
7:53 AM57 °FLow clouds.3 mph93%30.07 "Hg8 mi
6:53 AM56 °FClear.6 mph93%30.05 "Hg9 mi
5:53 AM56 °FClear.No wind93%30.04 "Hg10 mi
4:53 AM57 °FClear.5 mph93%30.03 "Hg10 mi
3:53 AM57 °FClear.5 mph93%30.03 "Hg10 mi
1:53 AM58 °FClear.6 mph90%30.02 "Hg10 mi
12:53 AM59 °FClear.3 mph90%30.04 "Hg10 mi
11:53 PM
Fri, Aug 28
60 °FClear.5 mph86%30.04 "Hg10 mi
Weather by CustomWeather, © 2015

See weather overviewHow to use our weather pages